Location: *
(37.5724°S, 58.0067°E)
Time: 02:55:45
(UTC+00:00)

CZ-4 R/B - Pass Details

Date: 20 January 2021
Orbit: 531 x 598 km, 97.7° (Epoch: 07 March)

Event Time Altitude Azimuth Distance (km) Brightness Sun altitude
Rises 15:50:57 0° 173° (S) 2,868 5.3 -4.7°
Reaches altitude 10° 15:53:10 10° 177° (S) 1,963 4.5 -5.1°
Maximum altitude 15:57:21 56° 254° (WSW) 722 2.4 -5.8°
Drops below altitude 10° 16:01:30 10° 333° (NNW) 1,945 4.1 -6.5°
Sets 16:03:41 0° 337° (NNW) 2,838 4.9 -6.9°
